Location: Peebles
(55.6412°N, 3.1714°W)
Time: 14:40:47
(UTC+01:00)

deb Agena D - Pass Details

Date: 25 September 2024
Orbit: 793 x 976 km, 99.8° (Epoch: 03 October)

Event Time Altitude Azimuth Distance (km) Brightness Sun altitude
Rises 03:49:59 0° 18° (NNE) 3,483 10.3 -26.0°
Reaches altitude 10° 03:52:20 10° 18° (NNE) 2,567 9.5 -25.7°
Maximum altitude 03:58:05 87° 291° (WNW) 930 6.3 -25.1°
Enters shadow 03:59:20 58° 206° (SSW) 1,070 6.3 -25.0°
